Regional Weather Roundup
Issued by NWS

Home | Current Version | Previous Version | Graphics & Text | Print | Product List | Glossary On
Versions: 1 2 3 4 5 6 7 8 9 10 11 12 13 14 15 16 17 18 19 20 21 22 23 24 25 26 27 28 29 30 31 32 33 34 35 36 37 38 39 40 41 42 43 44 45 46 47 48 49 50
000
ASUS43 KBIS 280102
RWRND

NORTH DAKOTA REGIONAL WEATHER ROUNDUP
NATIONAL WEATHER SERVICE BISMARCK ND
800 PM CDT WED JUL 27 2016

NOTE: "FAIR" INDICATES FEW OR NO CLOUDS BELOW 12,000 FEET WITH NO
SIGNIFICANT WEATHER AND/OR OBSTRUCTIONS TO VISIBILITY.


NDZ001>003-009>011-017-280200-
NORTHWEST NORTH DAKOTA

CITY           SKY/WX    TMP DP  RH WIND       PRES   REMARKS
WILLISTON      CLOUDY    70  61  73 E9        30.13S
MINOT          CLOUDY    73  59  61 NE7       30.12R
MINOT AFB      MOSUNNY   72  56  58 NE6       30.11S
$$

NDZ018>021-031>035-040>046-280200-
SOUTHWEST NORTH DAKOTA

CITY           SKY/WX    TMP DP  RH WIND       PRES   REMARKS
BISMARCK       CLOUDY    73  60  63 E8        30.10R
DICKINSON      PTSUNNY   72  59  63 NE13      30.10S
GARRISON         N/A     70  60  70 E7        30.12R
HETTINGER ARPT SUNNY     75  59  57 NE9       30.12F
$$

NDZ004>008-012>016-024-026-027-054-280200-
NORTHEAST NORTH DAKOTA

CITY           SKY/WX    TMP DP  RH WIND       PRES   REMARKS
GRAND FORKS    CLOUDY    72  58  61 NW9       30.05R
GRND FRKS AFB  CLOUDY    71  57  61 N10       30.08R
DEVILS LAKE    MOSUNNY   70  54  56 NE9       30.12R
$$

NDZ022-023-025-028>030-036>039-047>053-280200-
SOUTHEAST NORTH DAKOTA

CITY           SKY/WX    TMP DP  RH WIND       PRES   REMARKS
FARGO          MOCLDY    75  60  59 N15       30.02R
JAMESTOWN      PTSUNNY   72  58  61 N9        30.09R
$$





USA.gov is the U.S. government's official web portal to all federal, state and local government web resources and services.